sat.trackr.live / text

‹ back to catalog

STARLINK-35759

NORAD 69246 · 2026-117J

PAYLOAD ACTIVE UNKNOWN

§ Identity

Operator
Country
US
Launch date
2026-05-29
Launch site
AFETR
Launch vehicle
Mass (kg)
RCS (m²)

Purposes: comms

External: N2YO · Heavens-Above · Gunter

§ Orbital elements

Epoch: 2026-09-19T04:00:49.585248Z

Period
93.85 min
Inclination
53.1579°
Eccentricity
0.0001207
Mean motion
15.34410114 rev/d
Perigee alt
461.8 km
Apogee alt
463.5 km
Semi-major
6,840.8 km
B*
8.0822e-4
RAAN
159.8848°
Arg perigee
89.3554°
Mean anomaly
270.7587°
Rev number
1,746

§ Raw data

STARLINK-357591 69246U 26117J   26262.16724057  .00027038  00000+0  80822-3 0  99962 69246  53.1579 159.8848 0001207  89.3554 270.7587 15.34410114 17464

JSON: /api/v1/satellites/69246 · /tle

For live sub-satellite position, see the globe view (requires WebGL).

§ Visibility from observer

Set your observer location to see the next 7 days of passes ≥ 10°. The values pass through the URL so the page stays shareable.

No JS? Fill the form by hand. The geolocation button needs JavaScript.